Regional Weather Roundup
Issued by NWS

Home | Current Version | Previous Version | Graphics & Text | Print | Product List | Glossary On
Versions: 1 2 3 4 5 6 7 8 9 10 11 12 13 14 15 16 17 18 19 20 21 22 23 24 25 26 27 28 29 30 31 32 33 34 35 36 37 38 39 40 41 42 43 44 45 46 47 48 49 50
000
ASUS43 KMKX 011821
RWRWI

WISCONSIN REGIONAL WEATHER ROUNDUP
NATIONAL WEATHER SERVICE MILWAUKEE/SULLIVAN WI
100 PM CDT WED APR 01 2015

NOTE: "FAIR" INDICATES FEW OR NO CLOUDS BELOW 12,000 FEET WITH NO
SIGNIFICANT WEATHER AND/OR OBSTRUCTIONS TO VISIBILITY.

WIZ001-002-006>008-014>016-023>028-011900-
NORTHWEST WISCONSIN

CITY           SKY/WX    TMP DP  RH WIND       PRES   REMARKS
SUPERIOR ARPT  CLOUDY    36  32  87 NE14G20   29.67F WCI  27
6HR MIN TEMP:  32; 6HR MAX TEMP:  38;

ASHLAND        FAIR      62  33  33 S9G17     29.68F
6HR MIN TEMP:  30; 6HR MAX TEMP:  62;

HAYWARD        FAIR      59  34  39 S17G23    29.69F
6HR MIN TEMP:  39; 6HR MAX TEMP:  59;

SIREN          FAIR      63  32  32 S21G26    29.63F
6HR MIN TEMP:  41; 6HR MAX TEMP:  63;

CUMBERLAND     FAIR      61  32  33 SE15      29.69F
RICE LAKE      FAIR      62  33  32 SE14      29.71F
6HR MIN TEMP:  38; 6HR MAX TEMP:  62;

CHETEK         FAIR      64  35  35 SE16G24   29.72F
6HR MIN TEMP:  38; 6HR MAX TEMP:  64;

LADYSMITH      FAIR      59  35  41 S16G23    29.78F
6HR MIN TEMP:  35; 6HR MAX TEMP:  59;

EAU CLAIRE     FAIR      67  33  28 S17G28    29.73F
6HR MIN TEMP:  39; 6HR MAX TEMP:  67;

MENOMONIE      FAIR      68  33  27 SE14G21   29.72F
6HR MIN TEMP:  38; 6HR MAX TEMP:  68;

NEW RICHMOND   FAIR      71  36  28 S24G30    29.66F
6HR MIN TEMP:  40; 6HR MAX TEMP:  71;

OSCEOLA        FAIR      70  37  29 S23G29    29.66F
6HR MIN TEMP:  42; 6HR MAX TEMP:  70;

$$

WIZ003>005-009-010-017-018-011900-
NORTH CENTRAL WISCONSIN

CITY           SKY/WX    TMP DP  RH WIND       PRES   REMARKS
MANITOWISH WTR SUNNY     53  33  46 S14G21    29.78F
6HR MIN TEMP:  32; 6HR MAX TEMP:  53;

ARBOR VITAE    SUNNY     52  33  47 SE15G25   29.80F
6HR MIN TEMP:  34; 6HR MAX TEMP:  52;

WOODRUFF       SUNNY     52  33  47 SE15G25   29.80F
6HR MIN TEMP:  34; 6HR MAX TEMP:  52;

RHINELANDER    SUNNY     54  32  43 S14G20    29.84F
6HR MIN TEMP:  30; 6HR MAX TEMP:  54;

EAGLE RIVER    MOSUNNY   51  29  42 S14G23    29.83F
6HR MIN TEMP:  30; 6HR MAX TEMP:  51;

LAND O LAKES   FAIR      49  30  47 SE12G20   29.83F
6HR MIN TEMP:  28; 6HR MAX TEMP:  50;

PHILLIPS       FAIR      57  34  42 S17G28    29.77F
6HR MIN TEMP:  35; 6HR MAX TEMP:  57;

TOMAHAWK       SUNNY     55  33  43 SE10G21   29.83F
6HR MIN TEMP:  30; 6HR MAX TEMP:  55;

MEDFORD        FAIR      56  36  47 SE18G24   29.81F
6HR MIN TEMP:  35; 6HR MAX TEMP:  56;

MERRILL        SUNNY     56  35  44 S15G22    29.84F
6HR MIN TEMP:  27; 6HR MAX TEMP:  56;

$$

WIZ029-030-035-036-043>047-011900-
CENTRAL WISCONSIN

CITY           SKY/WX    TMP DP  RH WIND       PRES   REMARKS
WAUSAU         SUNNY     58  33  39 SE17G23   29.84F
6HR MIN TEMP:  30; 6HR MAX TEMP:  58;

MOSINEE        SUNNY     55  34  44 SE17G25   29.87F
MARSHFIELD     FAIR      62  34  35 S18G28    29.82F
6HR MIN TEMP:  35; 6HR MAX TEMP:  63;

STEVENS POINT  FAIR      58  33  38 SE13G20   29.87F
6HR MIN TEMP:  31; 6HR MAX TEMP:  58;

WAUPACA        SUNNY     59  34  38 SE14      29.92F
6HR MIN TEMP:  29; 6HR MAX TEMP:  60;

WAUTOMA        SUNNY     64  33  31 SE15      29.90F
6HR MIN TEMP:  26; 6HR MAX TEMP:  64;

WISC RAPIDS    FAIR      65  31  28 SE16G22   29.86F
6HR MIN TEMP:  33; 6HR MAX TEMP:  65;

CAMP DOUGLAS   MOSUNNY   68  36  30 S12G22    29.83F
$$

WIZ011>013-019>022-031-037>040-048>050-011900-
NORTHEAST WISCONSIN

CITY           SKY/WX    TMP DP  RH WIND       PRES   REMARKS
ANTIGO         MOSUNNY   50  34  55 SE20G25   29.88F
6HR MIN TEMP:  32; 6HR MAX TEMP:  50;

SHAWANO        MOSUNNY   55  36  49 SE10      29.95F
6HR MIN TEMP:  27; 6HR MAX TEMP:  55;

OCONTO         MOSUNNY   46  33  61 SE8       29.99F
6HR MIN TEMP:  22; 6HR MAX TEMP:  47;

STURGEON BAY   PTSUNNY   43  34  70 S14       30.02F
6HR MIN TEMP:  27; 6HR MAX TEMP:  43;

GREEN BAY      MOSUNNY   53  38  56 SE14      29.97F
6HR MIN TEMP:  28; 6HR MAX TEMP:  53;

MANITOWOC      PTSUNNY   43  36  76 SE14      30.01F
6HR MIN TEMP:  28; 6HR MAX TEMP:  44;

APPLETON       MOSUNNY   52  34  50 SE14      29.96F
CLINTONVILLE   SUNNY     52  34  50 SE13      29.94F
OSHKOSH        SUNNY     60  35  39 SE13      29.93F
6HR MIN TEMP:  31; 6HR MAX TEMP:  60;

$$

WIZ032>034-041-042-053>061-011900-
SOUTHWEST WISCONSIN

CITY           SKY/WX    TMP DP  RH WIND       PRES   REMARKS
LA CROSSE      FAIR      72  36  26 S20G26    29.77F
6HR MIN TEMP:  39; 6HR MAX TEMP:  72;

SPARTA         FAIR      70  31  24 S12G18    29.81F
6HR MIN TEMP:  33; 6HR MAX TEMP:  70;

VIROQUA        FAIR      69  35  29 S15       29.83F
6HR MIN TEMP:  37; 6HR MAX TEMP:  69;

BOSCOBEL       FAIR      74  36  25 S12G20    29.85F
6HR MIN TEMP:  31; 6HR MAX TEMP:  74;

PRAIRIE DU CHI FAIR      74  32  21 S8        29.83F
6HR MIN TEMP:  34; 6HR MAX TEMP:  74;

PLATTEVILLE    FAIR      72  37  27 SE17G28   29.88F
6HR MIN TEMP:  37; 6HR MAX TEMP:  72;

$$

WIZ056-057-062-063-064-067-068-011900-
SOUTH CENTRAL WISCONSIN

CITY           SKY/WX    TMP DP  RH WIND       PRES   REMARKS
REEDSBURG      FAIR      66  37  34 S8G20     29.87F
6HR MIN TEMP:  32; 6HR MAX TEMP:  66;

BARABOO/DELLS  FAIR      66  34  30 S14       29.88F
6HR MIN TEMP:  35; 6HR MAX TEMP:  66;

LONE ROCK      FAIR      71  35  26 S14       29.87F
6HR MIN TEMP:  34; 6HR MAX TEMP:  71;

MINERAL POINT  FAIR      72  32  23 S17G25    29.89F
MADISON        FAIR      68  35  29 S20       29.90F
6HR MIN TEMP:  30; 6HR MAX TEMP:  68;

MIDDLETON      FAIR      69  33  26 S14G23    29.90F
6HR MIN TEMP:  30; 6HR MAX TEMP:  69;

WATERTOWN      SUNNY     65  37  34 S13G20    29.93F
6HR MIN TEMP:  31; 6HR MAX TEMP:  65;

MONROE         FAIR      68  37  32 S14G25    29.92F
JANESVILLE     SUNNY     70  34  26 SE17      29.94F
$$

WIZ051-052-058>065-066-070>072-011900-
SOUTHEAST WISCONSIN

CITY           SKY/WX    TMP DP  RH WIND       PRES   REMARKS
MILWAUKEE      MOSUNNY   50  35  56 E13       30.01F
6HR MIN TEMP:  35; 6HR MAX TEMP:  51;

WAUKESHA       MOSUNNY   61  36  39 SE12G18   29.98F
MILWAUKEE/TIMM SUNNY     55  32  41 E9        30.00F
RACINE         SUNNY     51  36  56 S13       30.02F
6HR MIN TEMP:  31; 6HR MAX TEMP:  52;

BURLINGTON     SUNNY     65  35  32 E12       29.96F
6HR MIN TEMP:  26; 6HR MAX TEMP:  65;

KENOSHA        SUNNY     57  39  51 E13       29.99F
6HR MIN TEMP:  31; 6HR MAX TEMP:  58;

FOND DU LAC    SUNNY     63  35  35 S16G24    29.94F
6HR MIN TEMP:  28; 6HR MAX TEMP:  63;

SHEBOYGAN        N/A     50  34  54 SE15      30.00F
6HR MIN TEMP:  24; 6HR MAX TEMP:  53;

WEST BEND      SUNNY     55  32  41 SE12      29.98F
JUNEAU         SUNNY     63  37  37 SE13G21   29.94F
6HR MIN TEMP:  33; 6HR MAX TEMP:  63;

$$

LSZ147-162-011900-
LAKE SUPERIOR

STATION/POSITION TIME  TEMP    WIND        PRES    WAVE
                       AIR SEA DIR/SP/G            HT/PER
                 (UTC) (F)     (DEG/KT/KT) (MB)    (FT/S)
DEVILS ISLAND    1800   34      60/ 17/ 19 1006.8F
PORT WING        1812   34      30/ 21/ 26 1004.1F
SAXON HARBOR     1720   58     160/  9/ 18 1006.4F
$$

LMZ867-665-643>646-011900-
LAKE MICHIGAN

STATION/POSITION TIME  TEMP    WIND        PRES    WAVE
                       AIR SEA DIR/SP/G            HT/PER



USA.gov is the U.S. government's official web portal to all federal, state and local government web resources and services.